Location: Chandler
(33.3060°N, 111.8410°W)
Time: 04:21:30
(UTC-07:00)

Amateur Radio Satellites - All Passes

Search period start: 20 October 2014 03:51
Search period end: 21 October 2014 03:51
Location: Chandler, 33.3060°N, 111.8410°W

Satellite Date Start Highest point End Downlink Frequencies (MHz)
Time Altitude Azimuth
AO-Echo 20 Oct 04:01:14 04:03:38 13° 296° (WNW) 04:06:02 ?
Uosat F 20 Oct 04:01:21 04:05:18 23° 96° (E) 04:09:12 435.120 FM
AO-27 20 Oct 04:23:49 04:24:37 10° 298° (WNW) 04:25:24 436.795 MHz FM
OPAL 20 Oct 04:24:41 04:29:40 49° 71° (ENE) 04:34:37 ?
RS-15 20 Oct 04:28:01 04:29:01 10° 12° (NNE) 04:30:01 29.354 - 29.394 USB, Beacon 29.352 USB
Sapphire 20 Oct 04:52:21 04:57:42 65° 297° (WNW) 05:03:06 437.095 MHz 1200 baud AX-25 AFSK
JAS-2 20 Oct 05:04:29 05:11:17 33° 96° (E) 05:18:04 435.800 - 435.900 CW/SSB, 435.910 FM
PCSat 20 Oct 05:16:02 05:20:59 37° 301° (WNW) 05:26:00 145.825 MHz
Hamsat 20 Oct 05:26:40 05:29:49 21° 95° (E) 05:32:58 145.90 MHz
AO-7 20 Oct 05:29:49 05:37:55 59° 292° (WNW) 05:46:02 29.400 - 29.500 MHz
Uosat F 20 Oct 05:39:34 05:44:03 33° 290° (WNW) 05:48:32 435.120 FM
STRAND 1 20 Oct 06:00:56 06:05:39 39° 71° (ENE) 06:10:23 ?
OPAL 20 Oct 06:05:35 06:08:43 16° 264° (W) 06:11:50 ?
RS-15 20 Oct 06:37:04 06:46:43 32° 46° (NE) 06:56:37 29.354 - 29.394 USB, Beacon 29.352 USB
JAS-2 20 Oct 06:48:59 06:56:16 47° 290° (WNW) 07:03:39 435.800 - 435.900 CW/SSB, 435.910 FM
Hamsat 20 Oct 07:02:16 07:05:41 25° 288° (WNW) 07:09:06 145.90 MHz
SO-67 20 Oct 07:06:49 07:10:02 36° 98° (E) 07:13:13 435.3500 MHz FM
STRAND 1 20 Oct 07:41:14 07:44:54 20° 265° (W) 07:48:36 ?
HO-68 20 Oct 08:00:41 08:04:24 15° 92° (E) 08:08:05 435.675 MHz FM
Saudisat 1A 20 Oct 08:04:34 08:08:52 61° 116° (ESE) 08:13:12 436.775 MHz
PANSAT 20 Oct 08:25:38 08:28:06 16° 160° (SSE) 08:30:34 not established
RS-15 20 Oct 08:48:45 08:59:55 71° 247° (WSW) 09:11:36 29.354 - 29.394 USB, Beacon 29.352 USB
Oscar 11 20 Oct 09:01:08 09:02:19 11° 92° (E) 09:03:30 145.825 FM, Beacon 2401.500 USB
ZACube-1 20 Oct 09:36:12 09:37:16 11° 92° (E) 09:38:20 437.345 MHz
HO-68 20 Oct 09:45:28 09:52:41 80° 287° (WNW) 09:59:51 435.675 MHz FM
Saudisat 1A 20 Oct 09:46:49 09:48:48 13° 312° (NW) 09:50:48 436.775 MHz
UKube-1 20 Oct 09:48:21 09:52:36 49° 100° (E) 09:56:48 145.840 MHz, 145.915 MHz
PANSAT 20 Oct 10:04:19 10:07:48 34° 172° (S) 10:11:18 not established
FUNcube-1 20 Oct 10:19:36 10:23:36 39° 98° (E) 10:27:31 145.950 - 145.970 MHz USB
Oscar 11 20 Oct 10:34:34 10:38:42 48° 286° (WNW) 10:42:50 145.825 FM, Beacon 2401.500 USB
MaSat-1 20 Oct 10:42:06 10:44:35 47° 250° (WSW) 10:46:54 437.345 MHz
RS-15 20 Oct 11:07:14 11:10:24 11° 262° (W) 11:13:36 29.354 - 29.394 USB, Beacon 29.352 USB
ZACube-1 20 Oct 11:09:48 11:13:55 46° 286° (WNW) 11:17:55 437.345 MHz
UKube-1 20 Oct 11:26:34 11:28:18 12° 294° (WNW) 11:30:02 145.840 MHz, 145.915 MHz
HO-68 20 Oct 11:36:30 11:39:14 13° 303° (WNW) 11:41:58 435.675 MHz FM
PANSAT 20 Oct 11:44:05 11:47:40 38° 185° (S) 11:51:14 not established
FUNcube-1 20 Oct 11:57:25 11:59:35 14° 293° (WNW) 12:01:44 145.950 - 145.970 MHz USB
Oscar 19 20 Oct 12:11:52 12:15:19 18° 67° (ENE) 12:18:45 437.125 CW, 437.150 USB
KITSAT 1 20 Oct 12:20:05 12:28:00 63° 112° (ESE) 12:35:57 435.175 FM
SO-50 20 Oct 12:38:21 12:41:38 21° 110° (ESE) 12:44:59 436.795 FM
Oscar 16 20 Oct 12:54:56 12:59:56 52° 73° (ENE) 13:04:56 437.025 USB, Beacon 2401.1428
Gurwin Techsat 1B 20 Oct 13:05:22 13:07:12 12° 63° (ENE) 13:09:03 435.225 FM
Uribyol 2 20 Oct 13:06:28 13:10:48 27° 69° (ENE) 13:15:09 436.500 FM
Oscar 10/S400 20 Oct 13:09:24 13:29:59 48° 154° (SSE) 13:51:26 145.825 - 145.975 CW/USB, Beacon 145.810 USB
ITAMSAT 1 20 Oct 13:11:10 13:15:33 28° 69° (ENE) 13:19:57 435.822 SSB
TMSAT-1 20 Oct 13:19:47 13:21:38 12° 63° (ENE) 13:23:30 436.925 FM
ISS 20 Oct 13:20:08 13:23:22 53° 133° (SE) 13:26:38 145.800 FM
PANSAT 20 Oct 13:24:28 13:27:26 21° 197° (SSW) 13:30:24 not established
AO-Echo 20 Oct 13:29:13 13:33:51 53° 74° (ENE) 13:38:39 ?
JAS-1B 20 Oct 13:35:14 13:41:42 88° 256° (WSW) 13:47:29 435.800 - 435.900 CW/SSB
Sapphire 20 Oct 13:44:39 13:49:46 41° 60° (ENE) 13:54:52 437.095 MHz 1200 baud AX-25 AFSK
Oscar 19 20 Oct 13:49:21 13:54:16 44° 261° (W) 13:59:12 437.125 CW, 437.150 USB
AO-27 20 Oct 13:54:31 13:59:43 80° 76° (ENE) 14:04:57 436.795 MHz FM
PCSat 20 Oct 14:07:33 14:12:59 73° 64° (ENE) 14:18:22 145.825 MHz
KITSAT 1 20 Oct 14:17:15 14:23:52 27° 310° (NW) 14:30:32 435.175 FM
SO-50 20 Oct 14:17:54 14:21:55 32° 305° (NW) 14:26:04 436.795 FM
UOSAT-12 20 Oct 14:27:44 14:31:28 25° 111° (ESE) 14:35:15 437.025 FM, 437.400 FM
AO-7 20 Oct 14:33:27 14:39:50 26° 60° (ENE) 14:46:13 29.400 - 29.500 MHz
Oscar 16 20 Oct 14:36:39 14:39:30 15° 267° (W) 14:42:22 437.025 USB, Beacon 2401.1428
Gurwin Techsat 1B 20 Oct 14:41:12 14:46:29 73° 258° (WSW) 14:51:48 435.225 FM
Uribyol 2 20 Oct 14:45:37 14:50:07 30° 263° (W) 14:54:39 436.500 FM
ITAMSAT 1 20 Oct 14:50:30 14:54:55 28° 263° (W) 14:59:23 435.822 SSB
TMSAT-1 20 Oct 14:55:35 15:00:52 73° 258° (WSW) 15:06:11 436.925 FM
ISS 20 Oct 14:58:15 15:00:18 15° 329° (NNW) 15:02:21 145.800 FM
AO-Echo 20 Oct 15:10:55 15:12:57 13° 268° (W) 15:15:00 ?
Uosat F 20 Oct 15:11:02 15:14:43 21° 67° (ENE) 15:18:25 435.120 FM
Sapphire 20 Oct 15:28:49 15:32:51 22° 254° (WSW) 15:36:53 437.095 MHz 1200 baud AX-25 AFSK
PCSat 20 Oct 15:54:10 15:55:41 11° 258° (WSW) 15:57:11 145.825 MHz
UOSAT-12 20 Oct 16:07:25 16:11:27 29° 306° (NW) 16:15:34 437.025 FM, 437.400 FM
AO-7 20 Oct 16:23:48 16:31:58 63° 256° (WSW) 16:40:10 29.400 - 29.500 MHz
Saudisat 1A 20 Oct 16:36:10 16:39:00 17° 50° (NE) 16:41:50 436.775 MHz
OPAL 20 Oct 16:40:02 16:43:19 18° 96° (E) 16:46:34 ?
Uosat F 20 Oct 16:48:37 16:53:12 36° 261° (W) 16:57:50 435.120 FM
JAS-2 20 Oct 16:56:48 17:02:11 52° 72° (ENE) 17:08:15 435.800 - 435.900 CW/SSB, 435.910 FM
Hamsat 20 Oct 17:50:30 17:54:41 60° 260° (W) 17:58:52 145.90 MHz
Saudisat 1A 20 Oct 18:14:33 18:18:46 44° 246° (WSW) 18:22:57 436.775 MHz
STRAND 1 20 Oct 18:16:38 18:20:11 19° 95° (E) 18:23:41 ?
OPAL 20 Oct 18:17:40 18:22:19 41° 290° (WNW) 18:26:55 ?
AO-40 20 Oct 18:24:03 21:59:09 45° 191° (S) 03:47:12 Beacon 2401.320
JAS-2 20 Oct 18:44:09 18:47:45 17° 270° (W) 18:51:36 435.800 - 435.900 CW/SSB, 435.910 FM
SO-67 20 Oct 19:07:49 19:11:09 52° 260° (W) 19:14:31 435.3500 MHz FM
ISS 20 Oct 19:53:19 19:54:54 13° 29° (NNE) 19:56:28 145.800 FM
STRAND 1 20 Oct 19:54:39 19:59:28 42° 288° (WNW) 20:04:16 ?
HO-68 20 Oct 20:09:12 20:16:02 51° 69° (ENE) 20:22:54 435.675 MHz FM
KITSAT 1 20 Oct 20:19:41 20:24:19 16° 42° (NE) 20:28:57 435.175 FM
UKube-1 20 Oct 20:40:12 20:43:46 25° 70° (ENE) 20:47:21 145.840 MHz, 145.915 MHz
RS-15 20 Oct 20:57:44 21:06:08 26° 103° (ESE) 21:14:22 29.354 - 29.394 USB, Beacon 29.352 USB
FUNcube-1 20 Oct 21:12:11 21:15:39 22° 70° (ENE) 21:19:07 145.950 - 145.970 MHz USB
Oscar 11 20 Oct 21:25:00 21:29:19 76° 77° (ENE) 21:33:39 145.825 FM, Beacon 2401.500 USB
ISS 20 Oct 21:28:36 21:31:56 74° 225° (SW) 21:35:15 145.800 FM
HO-68 20 Oct 21:58:15 22:03:55 25° 264° (W) 22:09:37 435.675 MHz FM
ZACube-1 20 Oct 22:01:14 22:05:51 80° 77° (ENE) 22:10:27 437.345 MHz
KITSAT 1 20 Oct 22:12:59 22:21:05 76° 62° (ENE) 22:29:08 435.175 FM
UKube-1 20 Oct 22:16:29 22:19:51 22° 264° (W) 22:23:15 145.840 MHz, 145.915 MHz
FUNcube-1 20 Oct 22:47:47 22:51:48 30° 263° (W) 22:55:50 145.950 - 145.970 MHz USB
SO-50 20 Oct 22:52:40 22:57:31 71° 60° (ENE) 23:02:23 436.795 FM
RS-15 20 Oct 23:06:24 23:17:25 71° 301° (WNW) 23:28:20 29.354 - 29.394 USB, Beacon 29.352 USB
KITSAT 1 21 Oct 00:10:29 00:15:34 18° 258° (WSW) 00:20:40 435.175 FM
MaSat-1 21 Oct 00:14:47 00:19:11 86° 292° (WNW) 00:23:15 437.345 MHz
SO-50 21 Oct 00:36:37 00:37:28 10° 254° (WSW) 00:38:19 436.795 FM
UOSAT-12 21 Oct 00:40:15 00:44:58 77° 61° (ENE) 00:49:34 437.025 FM, 437.400 FM
Oscar 16 21 Oct 01:11:27 01:15:39 25° 96° (E) 01:19:50 437.025 USB, Beacon 2401.1428
JAS-1B 21 Oct 01:22:16 01:28:18 33° 99° (E) 01:35:16 435.800 - 435.900 CW/SSB
Uribyol 2 21 Oct 01:24:53 01:27:14 13° 93° (E) 01:29:35 436.500 FM
RS-15 21 Oct 01:24:57 01:32:06 19° 326° (NW) 01:39:19 29.354 - 29.394 USB, Beacon 29.352 USB
ITAMSAT 1 21 Oct 01:29:34 01:32:11 14° 93° (E) 01:34:46 435.822 SSB
AO-Echo 21 Oct 01:40:51 01:45:16 26° 96° (E) 01:49:40 ?
Oscar 19 21 Oct 02:04:55 02:10:03 89° 284° (WNW) 02:15:10 437.125 CW, 437.150 USB
AO-27 21 Oct 02:12:05 02:17:01 41° 99° (E) 02:21:53 436.795 MHz FM
Oscar 16 21 Oct 02:50:31 02:54:56 30° 290° (WNW) 02:59:20 437.025 USB, Beacon 2401.1428
Gurwin Techsat 1B 21 Oct 03:01:43 03:07:00 65° 101° (ESE) 03:12:15 435.225 FM
Uribyol 2 21 Oct 03:01:54 03:07:01 59° 286° (WNW) 03:12:06 436.500 FM
PCSat 21 Oct 03:04:04 03:07:25 17° 104° (ESE) 03:10:47 145.825 MHz
ITAMSAT 1 21 Oct 03:06:50 03:11:57 56° 287° (WNW) 03:17:01 435.822 SSB
JAS-1B 21 Oct 03:12:48 03:18:48 39° 289° (WNW) 03:25:50 435.800 - 435.900 CW/SSB
TMSAT-1 21 Oct 03:15:44 03:21:01 64° 101° (ESE) 03:26:15 436.925 FM
AO-Echo 21 Oct 03:19:18 03:23:57 32° 290° (WNW) 03:28:36 ?
